F4JFI-13 Weather Reports


Display with metric or nautical units.
time (UTC)temp
F
wind
direction
speed
MPH
gust
MPH
rain 1hr
in
rain 24hr
in
rain mn
in
humidity
%
barometer
mb
20260507191208 62 114 1.0 0.0 0.00 0.00 0.00 74 1009.2
20260507190208 64 94 0.0 0.0 0.00 0.00 0.00 72 1009.2
20260507185208 64 94 0.0 0.0 0.00 0.00 0.00 68 1009.2
20260507184208 66 94 0.0 0.0 0.00 0.00 0.00 66 1009.2
20260507183208 66 80 0.0 0.0 0.00 0.00 0.00 62 1009.2
20260507182218 66 80 0.0 0.0 0.00 0.00 0.00 62 1009.0
20260507181208 68 112 1.0 0.0 0.00 0.00 0.00 58 1009.0
20260507180208 68 116 0.0 0.0 0.00 0.00 0.00 56 1008.8
20260507175208 68 124 0.0 0.0 0.00 0.00 0.00 58 1009.0
20260507174208 68 176 1.0 0.0 0.00 0.00 0.00 58 1009.0
20260507173208 68 108 0.0 0.0 0.00 0.00 0.00 56 1009.0
20260507172218 70 108 1.0 0.0 0.00 0.00 0.00 56 1009.0
20260507171208 70 106 2.0 0.0 0.00 0.00 0.00 54 1009.0
20260507170208 72 18 1.0 0.0 0.00 0.00 0.00 50 1009.0
20260507165208 72 286 0.0 0.0 0.00 0.00 0.00 50 1009.0
20260507164208 72 202 1.0 0.0 0.00 0.00 0.00 50 1009.0
20260507163208 72 302 1.0 0.0 0.00 0.00 0.00 50 1009.0
20260507162208 72 220 1.0 0.0 0.00 0.00 0.00 50 1009.0
20260507161208 72 208 1.0 0.0 0.00 0.00 0.00 52 1009.0
20260507160208 70 138 0.0 0.0 0.00 0.00 0.00 52 1009.0
20260507155208 70 186 2.0 0.0 0.00 0.00 0.00 52 1009.0
20260507154208 70 220 1.0 0.0 0.00 0.00 0.00 54 1009.0
20260507153208 68 94 0.0 0.0 0.00 0.00 0.00 56 1009.2
20260507152218 68 94 0.0 0.0 0.00 0.00 0.00 54 1009.2
20260507151208 68 242 1.0 0.0 0.00 0.00 0.00 56 1009.4
20260507150208 68 164 1.0 0.0 0.00 0.00 0.00 56 1009.4
20260507145208 68 174 1.0 0.0 0.00 0.00 0.00 56 1009.6
20260507144208 70 188 1.0 0.0 0.00 0.00 0.00 54 1009.8
20260507143208 70 158 1.0 0.0 0.00 0.00 0.00 54 1009.8
20260507142213 68 284 1.0 0.0 0.00 0.00 0.00 58 1009.8
20260507141208 68 100 2.0 0.0 0.00 0.00 0.00 58 1010.0
20260507140208 68 132 2.0 0.0 0.00 0.00 0.00 56 1010.2
20260507135208 68 6 1.0 0.0 0.00 0.00 0.00 62 1010.2
20260507134208 68 292 2.0 0.0 0.00 0.00 0.00 62 1010.4
20260507133208 68 238 2.0 0.0 0.00 0.00 0.00 60 1010.6
20260507132213 68 298 1.0 0.0 0.00 0.00 0.00 62 1010.8
20260507131208 68 332 2.0 0.0 0.00 0.00 0.00 64 1010.8
20260507130208 68 316 1.0 0.0 0.00 0.00 0.00 64 1010.8
20260507125207 66 266 1.0 0.0 0.00 0.00 0.00 64 1010.8
20260507124208 66 212 1.0 0.0 0.00 0.00 0.00 66 1011.0
20260507123208 66 240 1.0 0.0 0.00 0.00 0.00 64 1011.2
20260507122213 66 156 1.0 0.0 0.00 0.00 0.00 66 1011.2
20260507121208 66 312 1.0 0.0 0.00 0.00 0.00 68 1011.2
20260507120207 66 64 2.0 0.0 0.00 0.00 0.00 66 1011.4
20260507115208 66 216 1.0 0.0 0.00 0.00 0.00 66 1011.4
20260507114208 64 222 2.0 0.0 0.00 0.00 0.00 70 1011.6
20260507113208 64 160 2.0 0.0 0.00 0.00 0.00 66 1011.6
20260507112218 66 294 2.0 0.0 0.00 0.00 0.00 70 1011.8
20260507111207 64 286 1.0 0.0 0.00 0.00 0.00 76 1011.8
20260507110208 62 98 2.0 0.0 0.00 0.00 0.00 76 1012.2
20260507105208 62 164 1.0 0.0 0.00 0.00 0.00 72 1012.2
20260507104208 64 294 2.0 0.0 0.00 0.00 0.00 76 1012.2
20260507103208 62 302 0.0 0.0 0.00 0.00 0.00 78 1012.2
20260507102208 60 296 1.0 0.0 0.00 0.00 0.00 78 1012.2
20260507101208 60 260 1.0 0.0 0.00 0.00 0.00 78 1012.4
20260507100208 60 148 1.0 0.0 0.00 0.00 0.00 78 1012.4
20260507095208 60 278 2.0 0.0 0.00 0.00 0.00 80 1012.4
20260507094208 60 316 1.0 0.0 0.00 0.00 0.00 80 1012.4
20260507093208 60 216 1.0 0.0 0.00 0.00 0.00 80 1012.4
20260507092218 60 304 1.0 0.0 0.00 0.00 0.00 80 1012.4
20260507091208 60 218 1.0 0.0 0.00 0.00 0.00 82 1012.2
20260507090208 58 336 0.0 0.0 0.00 0.00 0.00 84 1012.2
20260507085208 58 214 0.0 0.0 0.00 0.00 0.00 86 1012.2
20260507084207 58 302 0.0 0.0 0.00 0.00 0.00 86 1012.2
20260507083208 58 316 0.0 0.0 0.00 0.00 0.00 86 1012.0
20260507082218 56 40 0.0 0.0 0.00 0.00 0.00 88 1012.0
20260507081208 56 332 0.0 0.0 0.00 0.00 0.00 88 1012.0
20260507080208 56 328 0.0 0.0 0.00 0.00 0.00 90 1012.2
20260507075208 56 328 0.0 0.0 0.00 0.00 0.00 90 1012.0
20260507074208 56 328 0.0 0.0 0.00 0.00 0.00 90 1012.0
20260507073207 54 356 0.0 0.0 0.00 0.00 0.00 90 1012.2
20260507072217 54 356 0.0 0.0 0.00 0.00 0.00 90 1012.0
20260507071208 54 18 0.0 0.0 0.00 0.00 0.00 92 1012.0
20260507070208 54 18 0.0 0.0 0.00 0.00 0.00 92 1011.8
20260507065208 54 18 0.0 0.0 0.00 0.00 0.00 92 1012.0
20260507064208 54 288 0.0 0.0 0.00 0.00 0.00 92 1012.0
20260507063207 54 276 0.0 0.0 0.00 0.00 0.00 92 1011.8
20260507062213 54 274 0.0 0.0 0.00 0.00 0.00 92 1011.8
20260507061208 54 274 0.0 0.0 0.00 0.00 0.00 94 1011.8
20260507060208 54 274 0.0 0.0 0.00 0.00 0.00 94 1011.6
20260507055208 54 274 0.0 0.0 0.00 0.00 0.00 94 1011.4
20260507054208 54 274 0.0 0.0 0.00 0.00 0.00 94 1011.4
20260507053208 54 274 0.0 0.0 0.00 0.00 0.00 94 1011.4
20260507052219 54 274 0.0 0.0 0.00 0.00 0.00 94 1011.4
20260507051208 54 274 0.0 0.0 0.00 0.00 0.00 94 1011.4
20260507050208 54 274 0.0 0.0 0.00 0.00 0.00 94 1011.4
20260507045208 54 274 0.0 0.0 0.00 0.00 0.00 94 1011.4
20260507044208 54 274 0.0 0.0 0.00 0.00 0.00 94 1011.2
20260507043208 54 274 0.0 0.0 0.00 0.00 0.00 94 1011.2
20260507042213 54 274 0.0 0.0 0.00 0.00 0.00 94 1011.2
20260507041208 54 274 0.0 0.0 0.00 0.00 0.00 94 1011.2
20260507040209 54 274 0.0 0.0 0.00 0.00 0.00 94 1011.2
20260507035208 54 274 0.0 0.0 0.00 0.00 0.00 94 1011.2
20260507034208 54 274 0.0 0.0 0.00 0.00 0.00 94 1011.0
20260507033208 54 274 0.0 0.0 0.00 0.00 0.00 94 1011.0
20260507032218 54 274 0.0 0.0 0.00 0.00 0.00 94 1011.0
20260507031208 54 274 0.0 0.0 0.00 0.00 0.00 94 1011.0
20260507030208 54 274 0.0 0.0 0.00 0.00 0.00 94 1011.0
20260507025207 54 274 0.0 0.0 0.00 0.00 0.00 94 1011.0
20260507024208 54 274 0.0 0.0 0.00 0.00 0.00 94 1011.2
20260507023208 54 274 0.0 0.0 0.00 0.00 0.00 94 1011.2
20260507022218 54 274 0.0 0.0 0.00 0.00 0.00 94 1011.2
20260507021208 54 274 0.0 0.0 0.00 0.00 0.00 94 1011.0
20260507020208 54 274 0.0 0.0 0.00 0.00 0.00 94 1011.0
20260507015207 54 274 0.0 0.0 0.00 0.00 0.00 94 1011.0
20260507014208 54 274 0.0 0.0 0.00 0.00 0.00 94 1011.0
20260507013208 54 274 0.0 0.0 0.00 0.00 0.00 94 1011.0
20260507012218 54 274 0.0 0.0 0.00 0.00 0.00 94 1011.0
20260507011208 54 274 0.0 0.0 0.00 0.00 0.00 94 1010.8
20260507010208 54 274 0.0 0.0 0.00 0.00 0.00 94 1011.0
20260507005208 54 274 0.0 0.0 0.00 0.00 0.00 94 1011.0
20260507004208 54 276 0.0 0.0 0.00 0.00 0.00 94 1011.0
20260507003208 54 276 0.0 0.0 0.00 0.00 0.00 94 1011.0
20260507002218 54 248 0.0 0.0 0.00 0.00 0.00 94 1011.2
20260507001208 54 262 0.0 0.0 0.00 0.00 0.00 94 1011.2
20260507000208 54 262 0.0 0.0 0.00 0.00 0.00 94 1011.2
20260506235208 54 262 0.0 0.0 0.00 0.00 0.00 94 1011.2
20260506234208 54 262 0.0 0.0 0.00 0.00 0.00 94 1011.2
20260506233208 54 282 0.0 0.0 0.00 0.00 0.00 94 1011.2
20260506232208 54 280 0.0 0.0 0.00 0.00 0.00 94 1011.2
20260506231208 54 294 0.0 0.0 0.00 0.00 0.00 94 1011.2
20260506230208 54 322 0.0 0.0 0.00 0.00 0.00 94 1011.2
20260506225208 54 322 0.0 0.0 0.00 0.00 0.00 94 1011.2
20260506224208 54 214 0.0 0.0 0.00 0.00 0.00 94 1011.2
20260506223208 54 186 0.0 0.0 0.00 0.00 0.00 94 1011.2
20260506222208 54 192 0.0 0.0 0.00 0.00 0.00 94 1011.0
20260506221208 54 188 0.0 0.0 0.00 0.00 0.00 94 1011.0
20260506220208 54 188 0.0 0.0 0.00 0.00 0.00 94 1011.0
20260506215208 54 296 0.0 0.0 0.00 0.00 0.00 94 1011.0
20260506214208 54 166 0.0 0.0 0.00 0.00 0.00 94 1011.0
20260506213208 54 162 0.0 0.0 0.00 0.00 0.00 94 1010.8
20260506212208 54 258 0.0 0.0 0.00 0.00 0.00 94 1010.8
20260506211208 54 258 0.0 0.0 0.00 0.00 0.00 94 1010.8
20260506210208 54 264 0.0 0.0 0.01 0.00 0.00 94 1010.8
20260506205208 54 292 0.0 0.0 0.00 0.00 0.00 94 1010.6
20260506204208 56 288 0.0 0.0 0.00 0.00 0.00 94 1010.6
20260506203208 56 288 0.0 0.0 0.00 0.00 0.00 94 1010.6
20260506202217 56 280 0.0 0.0 0.00 0.00 0.00 94 1010.4
20260506201208 56 278 0.0 0.0 0.00 0.00 0.00 94 1010.4
20260506200208 56 304 0.0 0.0 0.05 0.00 0.00 94 1010.2
20260506195208 56 322 0.0 0.0 0.00 0.00 0.00 92 1010.2
20260506194208 56 322 0.0 0.0 0.00 0.00 0.00 92 1010.0
20260506193208 56 322 0.0 0.0 0.00 0.00 0.00 92 1009.8
20260506192213 56 322 0.0 0.0 0.00 0.00 0.00 92 1009.6